ARIANE 44LP DEB, 25543

Orbit data source: Space-Track

ARIANE 44LP DEB, 25543 is space debris in HEO originally from a launch on Sun, 11 Dec 1988 UTC launched from the French Guiana (FRGUI). Debris objects in space refer to the collection of defunct objects orbiting the Earth. Examples of debris include non-operational satellites, rocket bodies, and fragments generated from explosions, collisions, or faulty payload assembly.

Loading next visibility...
Identifier
25543, 1988-109K
Orbit
HEO
Country
Flag of FRFR
Related business
Manufacturer
Unknown
Mission
Spacecraft
Bus & Motor
Unknown
Mass
Unknown
Launch date (UTC)
1988-12-11 (37 years ago)
Launch vehicle
Unknown
Launch site
French Guiana (FRGUI)
Object type
Payload
Rocket body
Debris
Shape & HBR
Unknown shape, 2.8 m
Radar Cross Section
Large (>1 m²)

Expand to show TLE details & history
Last TLE update: 19 hours ago

TLE from 19 hours ago
0 ARIANE 44LP DEB
1 25543U 88109K   26035.29874218  .00000200  00000-0  10011-2 0  9999
2 25543   7.0289 281.6801 7181115 328.6501   3.8783  2.30704644233616
Epoch: 2026-02-04T07:10Z
TLE epoch observation values (Epoch: 2026-02-04T07:10:11.324Z)
Latitude
0.00021°
Longitude
39.85283°
Altitude
906.351 km
Speed
9.641 km/s
True Right ascension
18h 47m 28s
True Declination
0° 00' 01"
Sunlit
Object was in daylight at epoch
Visualization orbit readout
Latitude
Unknown
Longitude
Unknown
Altitude
Unknown
Speed
Unknown
Apparent Right ascension
Unknown
Apparent Declination
Unknown
Sunlit
N/A
Visualization observer readout
Local Sidereal Time
04:37:55
Azimuth
Unknown
Elevation
Unknown
Doppler factor
Unknown
Orbital elements
Apogee altitude
35,197.988 km
Perigee altitude
443.208 km
Semi-major axis
24,198.735 km
Eccentricity
0.71811
Inclination
7.0289°
RAAN
281.6801°
Arg. of periapsis
328.6501°
True anomaly
32.44967°
Mean anomaly
3.8783°
Eccentric anomaly
13.44481°
Mean motion
0.57657 °/min
Orbital period
624.38 mins
BSTAR
0.0010011
Loading maneuver chart data...
Computing Atmospheric mass density...
Loading historical data...
Loading historical data...
Loading historical data...
Loading historical data...
Loading historical data...
Loading historical data...
Loading historical data...

Documentation

Showing up to 5 results
|